Location: �terpigny
(49.8910°N, 2.9249°E)
Time: 14:59:23
(UTC+00:00)

Cosmos 1455 Rocket - Pass Details

Date: 24 October 2021
Orbit: 604 x 630 km, 82.5° (Epoch: 27 November)

Event Time Altitude Azimuth Distance (km) Brightness Sun altitude
Rises 17:06:19 0° 170° (S) 2,894 6.5 -5.0°
Reaches altitude 10° 17:08:36 10° 164° (SSE) 1,996 5.6 -5.4°
Maximum altitude 17:12:48 44° 93° (E) 880 3.4 -6.0°
Drops below altitude 10° 17:17:03 10° 22° (NNE) 2,021 5.4 -6.7°
Sets 17:19:22 0° 16° (NNE) 2,935 6.3 -7.1°
